Regional Weather Roundup
Issued by NWS Midland/Odessa, TX

Skip options and go directly to product.
Home | Oldest Version | Previous Version | Current Version | All | Text Only | Save Text | Print | Product List | Glossary Off

Skip product version selection by date and time.   

891
ASUS44 KMAF 251110
RWRMAF
MIDLAND AREA WEATHER ROUNDUP
NATIONAL WEATHER SERVICE MIDLAND TX
600 AM CDT FRI JUL 25 2014

...IN SOUTHWEST TEXAS AND SOUTHEAST NEW MEXICO...

CITY           SKY/WX    TMP DP  RH WIND       PRES   REMARKS
ALPINE         CLEAR     68  55  62 SW8       30.23R
ANDREWS        FAIR      75  60  61 S8        30.10S
ARTESIA        CLEAR     70  50  49 S6        30.10R
BIG SPRING     PTCLDY    74  63  67 SE3       30.11R
CARLSBAD       CLEAR     76  51  41 SE7       30.08R
DRYDEN           N/A     78  65  63 N5        30.04S
FORT STOCKTON  CLEAR     72  61  68 S9        30.08S
GUAD PASS      CLEAR     73  52  47 S9          N/A
HOBBS          NOT AVBL
MARFA          CLEAR     59  54  82 N9        30.22S
MIDLAND AIRPK  CLEAR     77  62  59 S7        30.09R
MIDLAND INTL   CLEAR     76  62  62 S8        30.08S
ODESSA         CLEAR     75  62  64 S8        30.09S
PECOS          CLEAR     71  56  60 E5        30.05R
PRESIDIO       FAIR      78  55  45 N6        30.06S
SEMINOLE       CLEAR     72  58  62 SW5       30.12R
SNYDER         PTCLDY    72  63  71 S5        30.08R
WINK           CLEAR     76  61  59 SE7       30.05S
$$
...OTHER STATIONS IN TEXAS...

CITY           SKY/WX    TMP DP  RH WIND       PRES   REMARKS
ABILENE        CLEAR     73  65  75 S7        30.05R
AMARILLO       CLEAR     73  61  65 S15       30.08S
AUSTIN         PTCLDY    73  70  90 SW3       30.02R
BROWNSVILLE    CLEAR     78  76  93 SE5       29.98R
CORPUS CHRISTI PTCLDY    78  74  87 S6        29.98S
DALLAS FTW     PTCLDY    75  70  84 SE5       30.01S
DEL RIO        CLEAR     76  68  76 E7        29.99S
EL PASO        PTCLDY    77  53  43 CALM      30.10R
HOUSTON INT    PTCLDY    75  73  93 CALM      30.00R
LUBBOCK        PTCLDY    76  60  57 SW14      30.09S
SAN ANGELO     CLEAR     71  63  75 S8        30.05S
SAN ANTONIO    MOCLDY    78  73  84 S5        30.03R
WACO           CLEAR     72  69  90 E5        30.01S
WICHITA FALLS  NOT AVBL
$$
...OTHER LOCATIONS IN NEW MEXICO...

CITY           SKY/WX    TMP DP  RH WIND       PRES   REMARKS
ALAMAGORDO     CLEAR     72  45  37 CALM      30.13R
ALBUQUERQUE    MOCLDY    73  42  32 SE5       30.20R
CANNON AFB     CLEAR     69  58  68 SW6       30.15S
CLOVIS         CLEAR     68  57  68 S9        30.17S
HOLLOMAN AFB   CLEAR     71  45  38 S3        30.11R
ROSWELL        CLEAR     71  47  42 SE7       30.09S
RUIDOSO        CLEAR     63  41  45 NW5       30.34R
SANTA FE       PTCLDY    61  45  55 N7        30.26R
TRUTH OR CONSE CLEAR     71  44  37 W8        30.15F
TUCUMCARI      CLEAR     77  51  40 SW21      30.07S
$$

USA.gov is the U.S. government's official web portal to all federal, state and local government web resources and services.